Regional Weather Roundup
Issued by NWS Midland/Odessa, TX

Home | Current Version | Previous Version | Text Only | Print | Product List | Glossary On
Versions: 1 2 3 4 5 6 7 8 9 10 11 12 13 14 15 16 17 18 19 20 21 22 23 24 25 26 27 28 29 30 31 32 33 34 35 36 37 38 39 40 41 42 43 44 45 46 47 48 49 50
000
ASUS44 KMAF 261210
RWRMAF
MIDLAND AREA WEATHER ROUNDUP
NATIONAL WEATHER SERVICE MIDLAND TX
700 AM CDT SUN APR 26 2015

...IN SOUTHWEST TEXAS AND SOUTHEAST NEW MEXICO...

CITY           SKY/WX    TMP DP  RH WIND       PRES   REMARKS
ALPINE         CLEAR     48  28  45 S7        29.88S
ANDREWS        FAIR      57  42  57 SW9       29.74R
ARTESIA        CLOUDY    59  25  27 S10       29.73S
BIG SPRING     CLEAR     59  38  46 SE8       29.75R
CARLSBAD       MOCLDY    46  29  51 W5        29.72R
DRYDEN           N/A     60  51  72 W7        29.70R
FORT STOCKTON  CLEAR     56  30  37 SW12      29.74R
GUAD PASS      CLOUDY    56  20  24 W15       29.83F
HOBBS          CLEAR     45  28  53 SE6       29.75S
MARFA          CLEAR     36  30  80 CALM      29.87R
MIDLAND AIRPK  CLEAR     63  46  53 W5        29.74R
MIDLAND INTL   CLEAR     57  43  59 SW6         N/A
ODESSA         CLEAR     57  40  52 W6        29.74S
PECOS          CLEAR     46  26  47 S6        29.72S
PRESIDIO       FAIR      58  26  30 NE6       29.77S
SEMINOLE       CLEAR     49  28  44 SW6       29.75S
SNYDER         CLEAR     55  40  59 S7        29.72S
WINK           CLEAR     43  26  51 N5        29.72S
$$
...OTHER STATIONS IN TEXAS...

CITY           SKY/WX    TMP DP  RH WIND       PRES   REMARKS
ABILENE        CLEAR     62  41  46 S3        29.71S
AMARILLO       PTCLDY    51  31  46 S8        29.70R
AUSTIN         LGT RAIN  70  68  93 SW7       29.73R FOG
BROWNSVILLE    CLOUDY    80  77  90 CALM      29.66R FOG
CORPUS CHRISTI CLOUDY    76  74  93 S3        29.70R FOG
DALLAS FTW     PTCLDY    59  54  83 SW5       29.66R
DEL RIO        CLOUDY    72  68  87 E7        29.66S
EL PASO        CLOUDY    62  26  25 SW17G23   29.77S
HOUSTON INT    CLOUDY    71  68  90 CALM      29.74R
LUBBOCK        PTCLDY    50  31  48 W6        29.71S
SAN ANGELO     CLEAR     58  50  75 S7        29.69F
SAN ANTONIO    CLOUDY    72  68  87 S6        29.73R
WACO           MOCLDY    68  66  93 SW12      29.71R
WICHITA FALLS  NOT AVBL
$$
...OTHER LOCATIONS IN NEW MEXICO...

CITY           SKY/WX    TMP DP  RH WIND       PRES   REMARKS
ALAMAGORDO     MOCLDY    55  25  30 S9        29.77S
ALBUQUERQUE    CLOUDY    53  35  50 NW9       29.74F
CANNON AFB     CLOUDY    46  27  48 W2        29.73R
CLOVIS         MOCLDY    45  25  45 CALM      29.73S
HOLLOMAN AFB   NOT AVBL
ROSWELL        CLOUDY    54  28  36 S10       29.70S
RUIDOSO        MOCLDY    48  19  32 W15G24    29.81S
SANTA FE       CLOUDY    47  29  49 CALM      29.77S
TRUTH OR CONSE PTCLDY    54  32  43 W9        29.73S
TUCUMCARI      MOCLDY    50  27  40 W7        29.69R
$$


USA.gov is the U.S. government's official web portal to all federal, state and local government web resources and services.